Prevelis — SYDL — position and weather

sailwx.info

Track history (hours):
 
Tides and Currents Weather Stations Pressure Air Temp Water Temp Dewpoint Dewpoint Depression Visibility Wind Speed Wind Dir Waves Ship Positions

Prevelis

Last reported at 2014-Oct-22 06:33 UTC. Time now 2014-Oct-23 03:41 UTC.
Position N 36°07' E 025°59'.

Length 143 m; draft 5.5 m.

Type: Passenger vessel. MMSI: 239297000.

Date/timePositionNaut miles runAvg speedWind from/ knotsBaromVisibWave heightAir tempDewpointWater temp
2014-Oct-22 06:33N 36°07' E 025°59'1716.8
2014-Oct-22 05:33N 36°20' E 025°46'1414.4
2014-Oct-22 04:34N 36°19' E 025°28'5 4.7
2014-Oct-22 03:33N 36°23' E 025°26'6 6.5
2014-Oct-22 02:33N 36°23' E 025°18'1817.9
2014-Oct-22 01:33N 36°32' E 024°58'1717.5
2014-Oct-22 00:34N 36°41' E 024°40'1211.6
2014-Oct-21 23:30N 36°43' E 024°25'7 7.2
2014-Oct-21 22:33N 36°49' E 024°20'1717.5
2014-Oct-21 21:33N 37°04' E 024°09'2317.8
2014-Oct-21 20:14N 37°24' E 023°54'1217.4
2014-Oct-21 19:33N 37°35' E 023°47'1717.5
2014-Oct-21 18:34N 37°50' E 023°37'7 6.7
2014-Oct-21 17:33N 37°57' E 023°38'0 0.0
2014-Oct-21 16:33N 37°57' E 023°38'0 0.0
2014-Oct-21 15:34N 37°57' E 023°38'0 0.0
2014-Oct-21 14:33N 37°57' E 023°38'0 0.0
2014-Oct-21 13:33N 37°57' E 023°38'0 0.0
2014-Oct-21 12:33N 37°57' E 023°38'0 0.0
2014-Oct-21 11:33N 37°57' E 023°38'0 0.0
2014-Oct-21 10:33N 37°57' E 023°38'0 0.0
2014-Oct-21 09:33N 37°57' E 023°38'0 0.0
2014-Oct-21 08:33N 37°57' E 023°38'0 0.0
2014-Oct-21 07:34N 37°57' E 023°38'0 0.0
2014-Oct-21 06:33N 37°57' E 023°38'0 0.0
2014-Oct-21 05:33N 37°57' E 023°38'0 0.0
2014-Oct-21 04:33N 37°57' E 023°38'0 0.0
2014-Oct-21 03:34N 37°57' E 023°38'0 0.0
2014-Oct-21 02:33N 37°57' E 023°38'0 0.0
2014-Oct-21 01:33N 37°57' E 023°38'0 0.0
2014-Oct-21 00:33N 37°57' E 023°38'0 0.0
2014-Oct-20 23:33N 37°57' E 023°38'0 0.0
2014-Oct-20 22:33N 37°57' E 023°38'0 0.0
2014-Oct-20 21:33N 37°57' E 023°38'0 0.0
2014-Oct-20 20:33N 37°57' E 023°38'0 0.0
2014-Oct-20 19:33N 37°57' E 023°38'0 0.0
2014-Oct-20 18:33N 37°57' E 023°38'0 0.0
2014-Oct-20 17:33N 37°57' E 023°38'0 0.0
2014-Oct-20 16:33N 37°57' E 023°38'0 0.0
2014-Oct-20 15:33N 37°57' E 023°38'0 0.0
2014-Oct-20 14:33N 37°57' E 023°38'0 0.0
2014-Oct-20 13:33N 37°57' E 023°38'0 0.0
2014-Oct-20 12:33N 37°57' E 023°38'0 0.0
2014-Oct-20 11:34N 37°57' E 023°38'0 0.0
2014-Oct-20 10:33N 37°57' E 023°38'1413.6
2014-Oct-20 09:33N 37°44' E 023°43'5117.1
2014-Oct-20 06:33N 36°58' E 024°14'1816.8
2014-Oct-20 05:29N 36°43' E 024°25'7 6.2
2014-Oct-20 04:25N 36°45' E 024°33'2017.3
2014-Oct-20 03:16N 36°35' E 024°54'1317.5
2014-Oct-20 02:31N 36°28' E 025°08'1515.3
2014-Oct-20 01:33N 36°23' E 025°26'0 0.1
2014-Oct-20 00:32N 36°23' E 025°26'5 4.8
2014-Oct-19 23:33N 36°19' E 025°28'1414.4
2014-Oct-19 22:33N 36°21' E 025°46'1313.5
2014-Oct-19 21:33N 36°09' E 025°38'1616.5
2014-Oct-19 20:33N 35°54' E 025°30'80 2.6
2014-Oct-18 14:24N 35°26' E 027°02'7 8.3
2014-Oct-18 13:34N 35°25' E 026°54'5413.6
2014-Oct-18 09:33N 35°22' E 025°47'2318.7
2014-Oct-18 08:19N 35°22' E 025°18'810.5
2014-Oct-18 07:33N 35°21' E 025°09'3 3.4
2014-Oct-18 06:33N 35°23' E 025°12'1717.3
2014-Oct-18 05:33N 35°38' E 025°22'1717.2
2014-Oct-18 04:33N 35°53' E 025°31'1717.4
2014-Oct-18 03:33N 36°09' E 025°40'1212.3
2014-Oct-18 02:33N 36°21' E 025°46'1716.8
2014-Oct-18 01:33N 36°19' E 025°26'4 4.3
2014-Oct-18 00:32N 36°23' E 025°26'7 7.4
2014-Oct-17 23:33N 36°23' E 025°17'1818.1
2014-Oct-17 22:33N 36°32' E 024°58'1817.8
2014-Oct-17 21:33N 36°42' E 024°39'10 8.5
2014-Oct-17 20:23N 36°43' E 024°27'8 8.8
2014-Oct-17 19:28N 36°49' E 024°20'1617.7
2014-Oct-17 18:33N 37°04' E 024°10'2117.8
2014-Oct-17 17:22N 37°22' E 023°56'1518.4
2014-Oct-17 16:33N 37°34' E 023°46'1818.2
2014-Oct-17 15:33N 37°51' E 023°37'6 6.3
2014-Oct-17 14:33N 37°57' E 023°38'0 0.0
2014-Oct-17 13:33N 37°57' E 023°38'0 0.0
2014-Oct-17 12:33N 37°57' E 023°38'0 0.0
2014-Oct-17 11:33N 37°57' E 023°38'0 0.0
2014-Oct-17 10:33N 37°57' E 023°38'0 0.0
2014-Oct-17 09:33N 37°57' E 023°38'0 0.0
2014-Oct-17 08:33N 37°57' E 023°38'0 0.0
2014-Oct-17 07:33N 37°57' E 023°38'0 0.0
2014-Oct-17 06:33N 37°57' E 023°38'0 0.0
2014-Oct-17 05:33N 37°57' E 023°38'0 0.0
2014-Oct-17 04:33N 37°57' E 023°38'0 0.0
2014-Oct-17 03:33N 37°57' E 023°38'0 0.0
2014-Oct-17 02:33N 37°57' E 023°38'1212.1
2014-Oct-17 01:33N 37°45' E 023°43'1817.5
2014-Oct-17 00:32N 37°29' E 023°53'2617.9
2014-Oct-16 23:05N 37°06' E 024°08'1018.6
2014-Oct-16 22:33N 36°57' E 024°14'1816.5
2014-Oct-16 21:29N 36°43' E 024°27'6 5.3
2014-Oct-16 20:23N 36°45' E 024°33'1517.8
2014-Oct-16 19:33N 36°37' E 024°49'1817.6
2014-Oct-16 18:33N 36°28' E 025°08'1515.2
2014-Oct-16 17:33N 36°23' E 025°26'3 2.9
2014-Oct-16 16:33N 36°22' E 025°22'1313.4
2014-Oct-16 15:33N 36°20' E 025°38'6 6.3
2014-Oct-16 14:33N 36°21' E 025°46'1717.1
2014-Oct-16 13:33N 36°07' E 025°59'1817.7
2014-Oct-16 12:33N 35°55' E 026°15'1818.1
2014-Oct-16 11:34N 35°44' E 026°33'1818.2
2014-Oct-16 10:33N 35°33' E 026°50'9 9.0
2014-Oct-16 09:32N 35°26' E 026°58'34 8.5
2014-Oct-16 05:33N 35°55' E 027°21'1817.9
2014-Oct-16 04:33N 36°09' E 027°34'23 1.6
2014-Oct-15 14:11N 35°51' E 027°17'64 8.2
2014-Oct-15 06:18N 36°06' E 026°00'1418.6
2014-Oct-15 05:33N 36°16' E 025°48'1111.4
2014-Oct-15 04:34N 36°20' E 025°35'8 8.4
2014-Oct-15 03:33N 36°23' E 025°25'5 5.0
2014-Oct-15 02:34N 36°22' E 025°20'1918.5
2014-Oct-15 01:33N 36°31' E 024°60'1818.0
2014-Oct-15 00:34N 36°41' E 024°41'1413.4
2014-Oct-14 23:33N 36°44' E 024°24'5 4.8
2014-Oct-14 22:33N 36°48' E 024°21'1818.5
2014-Oct-14 21:33N 37°04' E 024°09'3717.8
2014-Oct-14 19:29N 37°36' E 023°46'1717.8
2014-Oct-14 18:33N 37°51' E 023°37'6 6.1
2014-Oct-14 17:33N 37°57' E 023°38'0 0.0
2014-Oct-14 16:33N 37°57' E 023°38'0 0.0
2014-Oct-14 15:34N 37°57' E 023°38'0 0.0
2014-Oct-14 14:33N 37°57' E 023°38'0 0.0
2014-Oct-14 13:34N 37°57' E 023°38'0 0.0
2014-Oct-14 12:33N 37°57' E 023°38'0 0.0
2014-Oct-14 11:33N 37°57' E 023°38'0 0.0
2014-Oct-14 10:34N 37°57' E 023°38'0 0.0
2014-Oct-14 09:34N 37°57' E 023°38'0 0.0
2014-Oct-14 08:34N 37°57' E 023°38'0 0.0
2014-Oct-14 07:33N 37°57' E 023°38'0 0.0
2014-Oct-14 06:34N 37°57' E 023°38'0 0.0
2014-Oct-14 05:34N 37°57' E 023°38'0 0.0
2014-Oct-14 04:34N 37°57' E 023°38'0 0.0
2014-Oct-14 03:33N 37°57' E 023°38'0 0.0
2014-Oct-14 02:33N 37°57' E 023°38'0 0.0
2014-Oct-14 01:33N 37°57' E 023°38'0 0.0
2014-Oct-14 00:33N 37°57' E 023°38'0 0.0
2014-Oct-13 23:34N 37°57' E 023°38'0 0.0
2014-Oct-13 22:34N 37°57' E 023°38'0 0.0
2014-Oct-13 21:34N 37°57' E 023°38'0 0.0
2014-Oct-13 20:33N 37°57' E 023°38'0 0.0
2014-Oct-13 19:34N 37°57' E 023°38'0 0.0
2014-Oct-13 18:33N 37°57' E 023°38'0 0.0
2014-Oct-13 17:34N 37°57' E 023°38'0 0.0
2014-Oct-13 16:34N 37°57' E 023°38'0 0.0
2014-Oct-13 15:34N 37°57' E 023°38'0 0.0
2014-Oct-13 14:34N 37°57' E 023°38'0 0.0
2014-Oct-13 13:34N 37°57' E 023°38'0 0.0
2014-Oct-13 12:33N 37°57' E 023°38'0 0.0
2014-Oct-13 11:33N 37°57' E 023°38'0 0.0
2014-Oct-13 10:34N 37°57' E 023°38'0 0.0
2014-Oct-13 09:34N 37°57' E 023°38'0 0.0
2014-Oct-13 08:34N 37°57' E 023°38'0 0.0
2014-Oct-13 07:33N 37°57' E 023°38'0 0.2
2014-Oct-13 06:33N 37°57' E 023°38'1615.5
2014-Oct-13 05:33N 37°42' E 023°45'3718.4
2014-Oct-13 03:33N 37°10' E 024°08'1818.1
2014-Oct-13 02:33N 36°54' E 024°17'1312.8
2014-Oct-13 01:33N 36°43' E 024°27'5 5.0
2014-Oct-13 00:33N 36°46' E 024°32'1818.1
2014-Oct-12 23:32N 36°36' E 024°51'1818.2
2014-Oct-12 22:34N 36°27' E 025°10'1413.3
2014-Oct-12 21:33N 36°23' E 025°26'5 5.0
2014-Oct-12 20:34N 36°21' E 025°20'1817.5
2014-Oct-12 19:33N 36°20' E 025°42'5 5.5
2014-Oct-12 18:33N 36°15' E 025°40'1818.1
2014-Oct-12 17:33N 35°58' E 025°32'1818.0
2014-Oct-12 16:33N 35°41' E 025°24'  
Track history (hours):
 
Tides and Currents Weather Stations Pressure Air Temp Water Temp Dewpoint Dewpoint Depression Visibility Wind Speed Wind Dir Waves Ship Positions

Prevelis

Last reported at 2014-Oct-22 06:33 UTC. Time now 2014-Oct-23 03:41 UTC.
Position N 36°07' E 025°59'.

Length 143 m; draft 5.5 m.

Type: Passenger vessel. MMSI: 239297000.

Date/timePositionNaut miles runAvg speedWind from/ knotsBaromVisibWave heightAir tempDewpointWater temp
2014-Oct-22 06:33N 36°07' E 025°59'1716.8
2014-Oct-22 05:33N 36°20' E 025°46'1414.4
2014-Oct-22 04:34N 36°19' E 025°28'5 4.7
2014-Oct-22 03:33N 36°23' E 025°26'6 6.5
2014-Oct-22 02:33N 36°23' E 025°18'1817.9
2014-Oct-22 01:33N 36°32' E 024°58'1717.5
2014-Oct-22 00:34N 36°41' E 024°40'1211.6
2014-Oct-21 23:30N 36°43' E 024°25'7 7.2
2014-Oct-21 22:33N 36°49' E 024°20'1717.5
2014-Oct-21 21:33N 37°04' E 024°09'2317.8
2014-Oct-21 20:14N 37°24' E 023°54'1217.4
2014-Oct-21 19:33N 37°35' E 023°47'1717.5
2014-Oct-21 18:34N 37°50' E 023°37'7 6.7
2014-Oct-21 17:33N 37°57' E 023°38'0 0.0
2014-Oct-21 16:33N 37°57' E 023°38'0 0.0
2014-Oct-21 15:34N 37°57' E 023°38'0 0.0
2014-Oct-21 14:33N 37°57' E 023°38'0 0.0
2014-Oct-21 13:33N 37°57' E 023°38'0 0.0
2014-Oct-21 12:33N 37°57' E 023°38'0 0.0
2014-Oct-21 11:33N 37°57' E 023°38'0 0.0
2014-Oct-21 10:33N 37°57' E 023°38'0 0.0
2014-Oct-21 09:33N 37°57' E 023°38'0 0.0
2014-Oct-21 08:33N 37°57' E 023°38'0 0.0
2014-Oct-21 07:34N 37°57' E 023°38'0 0.0
2014-Oct-21 06:33N 37°57' E 023°38'0 0.0
2014-Oct-21 05:33N 37°57' E 023°38'0 0.0
2014-Oct-21 04:33N 37°57' E 023°38'0 0.0
2014-Oct-21 03:34N 37°57' E 023°38'0 0.0
2014-Oct-21 02:33N 37°57' E 023°38'0 0.0
2014-Oct-21 01:33N 37°57' E 023°38'0 0.0
2014-Oct-21 00:33N 37°57' E 023°38'0 0.0
2014-Oct-20 23:33N 37°57' E 023°38'0 0.0
2014-Oct-20 22:33N 37°57' E 023°38'0 0.0
2014-Oct-20 21:33N 37°57' E 023°38'0 0.0
2014-Oct-20 20:33N 37°57' E 023°38'0 0.0
2014-Oct-20 19:33N 37°57' E 023°38'0 0.0
2014-Oct-20 18:33N 37°57' E 023°38'0 0.0
2014-Oct-20 17:33N 37°57' E 023°38'0 0.0
2014-Oct-20 16:33N 37°57' E 023°38'0 0.0
2014-Oct-20 15:33N 37°57' E 023°38'0 0.0
2014-Oct-20 14:33N 37°57' E 023°38'0 0.0
2014-Oct-20 13:33N 37°57' E 023°38'0 0.0
2014-Oct-20 12:33N 37°57' E 023°38'0 0.0
2014-Oct-20 11:34N 37°57' E 023°38'0 0.0
2014-Oct-20 10:33N 37°57' E 023°38'1413.6
2014-Oct-20 09:33N 37°44' E 023°43'5117.1
2014-Oct-20 06:33N 36°58' E 024°14'1816.8
2014-Oct-20 05:29N 36°43' E 024°25'7 6.2
2014-Oct-20 04:25N 36°45' E 024°33'2017.3
2014-Oct-20 03:16N 36°35' E 024°54'1317.5
2014-Oct-20 02:31N 36°28' E 025°08'1515.3
2014-Oct-20 01:33N 36°23' E 025°26'0 0.1
2014-Oct-20 00:32N 36°23' E 025°26'5 4.8
2014-Oct-19 23:33N 36°19' E 025°28'1414.4
2014-Oct-19 22:33N 36°21' E 025°46'1313.5
2014-Oct-19 21:33N 36°09' E 025°38'1616.5
2014-Oct-19 20:33N 35°54' E 025°30'80 2.6
2014-Oct-18 14:24N 35°26' E 027°02'7 8.3
2014-Oct-18 13:34N 35°25' E 026°54'5413.6
2014-Oct-18 09:33N 35°22' E 025°47'2318.7
2014-Oct-18 08:19N 35°22' E 025°18'810.5
2014-Oct-18 07:33N 35°21' E 025°09'3 3.4
2014-Oct-18 06:33N 35°23' E 025°12'1717.3
2014-Oct-18 05:33N 35°38' E 025°22'1717.2
2014-Oct-18 04:33N 35°53' E 025°31'1717.4
2014-Oct-18 03:33N 36°09' E 025°40'1212.3
2014-Oct-18 02:33N 36°21' E 025°46'1716.8
2014-Oct-18 01:33N 36°19' E 025°26'4 4.3
2014-Oct-18 00:32N 36°23' E 025°26'7 7.4
2014-Oct-17 23:33N 36°23' E 025°17'1818.1
2014-Oct-17 22:33N 36°32' E 024°58'1817.8
2014-Oct-17 21:33N 36°42' E 024°39'10 8.5
2014-Oct-17 20:23N 36°43' E 024°27'8 8.8
2014-Oct-17 19:28N 36°49' E 024°20'1617.7
2014-Oct-17 18:33N 37°04' E 024°10'2117.8
2014-Oct-17 17:22N 37°22' E 023°56'1518.4
2014-Oct-17 16:33N 37°34' E 023°46'1818.2
2014-Oct-17 15:33N 37°51' E 023°37'6 6.3
2014-Oct-17 14:33N 37°57' E 023°38'0 0.0
2014-Oct-17 13:33N 37°57' E 023°38'0 0.0
2014-Oct-17 12:33N 37°57' E 023°38'0 0.0
2014-Oct-17 11:33N 37°57' E 023°38'0 0.0
2014-Oct-17 10:33N 37°57' E 023°38'0 0.0
2014-Oct-17 09:33N 37°57' E 023°38'0 0.0
2014-Oct-17 08:33N 37°57' E 023°38'0 0.0
2014-Oct-17 07:33N 37°57' E 023°38'0 0.0
2014-Oct-17 06:33N 37°57' E 023°38'0 0.0
2014-Oct-17 05:33N 37°57' E 023°38'0 0.0
2014-Oct-17 04:33N 37°57' E 023°38'0 0.0
2014-Oct-17 03:33N 37°57' E 023°38'0 0.0
2014-Oct-17 02:33N 37°57' E 023°38'1212.1
2014-Oct-17 01:33N 37°45' E 023°43'1817.5
2014-Oct-17 00:32N 37°29' E 023°53'2617.9
2014-Oct-16 23:05N 37°06' E 024°08'1018.6
2014-Oct-16 22:33N 36°57' E 024°14'1816.5
2014-Oct-16 21:29N 36°43' E 024°27'6 5.3
2014-Oct-16 20:23N 36°45' E 024°33'1517.8
2014-Oct-16 19:33N 36°37' E 024°49'1817.6
2014-Oct-16 18:33N 36°28' E 025°08'1515.2
2014-Oct-16 17:33N 36°23' E 025°26'3 2.9
2014-Oct-16 16:33N 36°22' E 025°22'1313.4
2014-Oct-16 15:33N 36°20' E 025°38'6 6.3
2014-Oct-16 14:33N 36°21' E 025°46'1717.1
2014-Oct-16 13:33N 36°07' E 025°59'1817.7
2014-Oct-16 12:33N 35°55' E 026°15'1818.1
2014-Oct-16 11:34N 35°44' E 026°33'1818.2
2014-Oct-16 10:33N 35°33' E 026°50'9 9.0
2014-Oct-16 09:32N 35°26' E 026°58'34 8.5
2014-Oct-16 05:33N 35°55' E 027°21'1817.9
2014-Oct-16 04:33N 36°09' E 027°34'23 1.6
2014-Oct-15 14:11N 35°51' E 027°17'64 8.2
2014-Oct-15 06:18N 36°06' E 026°00'1418.6
2014-Oct-15 05:33N 36°16' E 025°48'1111.4
2014-Oct-15 04:34N 36°20' E 025°35'8 8.4
2014-Oct-15 03:33N 36°23' E 025°25'5 5.0
2014-Oct-15 02:34N 36°22' E 025°20'1918.5
2014-Oct-15 01:33N 36°31' E 024°60'1818.0
2014-Oct-15 00:34N 36°41' E 024°41'1413.4
2014-Oct-14 23:33N 36°44' E 024°24'5 4.8
2014-Oct-14 22:33N 36°48' E 024°21'1818.5
2014-Oct-14 21:33N 37°04' E 024°09'3717.8
2014-Oct-14 19:29N 37°36' E 023°46'1717.8
2014-Oct-14 18:33N 37°51' E 023°37'6 6.1
2014-Oct-14 17:33N 37°57' E 023°38'0 0.0
2014-Oct-14 16:33N 37°57' E 023°38'0 0.0
2014-Oct-14 15:34N 37°57' E 023°38'0 0.0
2014-Oct-14 14:33N 37°57' E 023°38'0 0.0
2014-Oct-14 13:34N 37°57' E 023°38'0 0.0
2014-Oct-14 12:33N 37°57' E 023°38'0 0.0
2014-Oct-14 11:33N 37°57' E 023°38'0 0.0
2014-Oct-14 10:34N 37°57' E 023°38'0 0.0
2014-Oct-14 09:34N 37°57' E 023°38'0 0.0
2014-Oct-14 08:34N 37°57' E 023°38'0 0.0
2014-Oct-14 07:33N 37°57' E 023°38'0 0.0
2014-Oct-14 06:34N 37°57' E 023°38'0 0.0
2014-Oct-14 05:34N 37°57' E 023°38'0 0.0
2014-Oct-14 04:34N 37°57' E 023°38'0 0.0
2014-Oct-14 03:33N 37°57' E 023°38'0 0.0
2014-Oct-14 02:33N 37°57' E 023°38'0 0.0
2014-Oct-14 01:33N 37°57' E 023°38'0 0.0
2014-Oct-14 00:33N 37°57' E 023°38'0 0.0
2014-Oct-13 23:34N 37°57' E 023°38'0 0.0
2014-Oct-13 22:34N 37°57' E 023°38'0 0.0
2014-Oct-13 21:34N 37°57' E 023°38'0 0.0
2014-Oct-13 20:33N 37°57' E 023°38'0 0.0
2014-Oct-13 19:34N 37°57' E 023°38'0 0.0
2014-Oct-13 18:33N 37°57' E 023°38'0 0.0
2014-Oct-13 17:34N 37°57' E 023°38'0 0.0
2014-Oct-13 16:34N 37°57' E 023°38'0 0.0
2014-Oct-13 15:34N 37°57' E 023°38'0 0.0
2014-Oct-13 14:34N 37°57' E 023°38'0 0.0
2014-Oct-13 13:34N 37°57' E 023°38'0 0.0
2014-Oct-13 12:33N 37°57' E 023°38'0 0.0
2014-Oct-13 11:33N 37°57' E 023°38'0 0.0
2014-Oct-13 10:34N 37°57' E 023°38'0 0.0
2014-Oct-13 09:34N 37°57' E 023°38'0 0.0
2014-Oct-13 08:34N 37°57' E 023°38'0 0.0
2014-Oct-13 07:33N 37°57' E 023°38'0 0.2
2014-Oct-13 06:33N 37°57' E 023°38'1615.5
2014-Oct-13 05:33N 37°42' E 023°45'3718.4
2014-Oct-13 03:33N 37°10' E 024°08'1818.1
2014-Oct-13 02:33N 36°54' E 024°17'1312.8
2014-Oct-13 01:33N 36°43' E 024°27'5 5.0
2014-Oct-13 00:33N 36°46' E 024°32'1818.1
2014-Oct-12 23:32N 36°36' E 024°51'1818.2
2014-Oct-12 22:34N 36°27' E 025°10'1413.3
2014-Oct-12 21:33N 36°23' E 025°26'5 5.0
2014-Oct-12 20:34N 36°21' E 025°20'1817.5
2014-Oct-12 19:33N 36°20' E 025°42'5 5.5
2014-Oct-12 18:33N 36°15' E 025°40'1818.1
2014-Oct-12 17:33N 35°58' E 025°32'1818.0
2014-Oct-12 16:33N 35°41' E 025°24'  

Dump ship's entire track history